Year,Month,Day,Hour,Minute,Value (Times are PST for temperature in C)
2014,02,04,00,00,-0.90
2014,02,04,00,01,-1.00
2014,02,04,00,02,-1.10
2014,02,04,00,03,-1.20
2014,02,04,00,04,-1.30
2014,02,04,00,05,-1.30
2014,02,04,00,06,-1.40
2014,02,04,00,07,-1.50
2014,02,04,00,08,-1.60
2014,02,04,00,09,-1.60
2014,02,04,00,10,-1.70
2014,02,04,00,11,-1.80
2014,02,04,00,12,-1.80
2014,02,04,00,13,-1.90
2014,02,04,00,14,-2.00
2014,02,04,00,15,-2.00
2014,02,04,00,16,-2.10
2014,02,04,00,17,-2.20
2014,02,04,00,18,-2.20
2014,02,04,00,19,-2.30
2014,02,04,00,20,-2.30
2014,02,04,00,21,-2.30
2014,02,04,00,22,-2.40
2014,02,04,00,23,-2.40
2014,02,04,00,24,-2.50
2014,02,04,00,25,-2.50
2014,02,04,00,26,-2.50
2014,02,04,00,27,-2.60
2014,02,04,00,28,-2.60
2014,02,04,00,29,-2.60
2014,02,04,00,30,-2.70
2014,02,04,00,31,-2.70
2014,02,04,00,32,-2.80
2014,02,04,00,33,-2.80
2014,02,04,00,34,-2.80
2014,02,04,00,35,-2.80
2014,02,04,00,36,-2.80
2014,02,04,00,37,-2.80
2014,02,04,00,38,-2.80
2014,02,04,00,39,-2.80
2014,02,04,00,40,-2.80
2014,02,04,00,41,-2.80
2014,02,04,00,42,-2.70
2014,02,04,00,43,-2.70
2014,02,04,00,44,-2.70
2014,02,04,00,45,-2.70
2014,02,04,00,46,-2.60
2014,02,04,00,47,-2.60
2014,02,04,00,48,-2.50
2014,02,04,00,49,-2.50
2014,02,04,00,50,-2.40
2014,02,04,00,51,-2.30
2014,02,04,00,52,-2.20
2014,02,04,00,53,-2.10
2014,02,04,00,54,-2.10
2014,02,04,00,55,-2.00
2014,02,04,00,56,-2.00
2014,02,04,00,57,-2.00
2014,02,04,00,58,-2.00
2014,02,04,00,59,-1.90
2014,02,04,01,00,-1.90
2014,02,04,01,01,-1.90
2014,02,04,01,02,-1.90
2014,02,04,01,03,-1.80
2014,02,04,01,04,-1.80
2014,02,04,01,05,-1.70
2014,02,04,01,06,-1.70
2014,02,04,01,07,-1.70
2014,02,04,01,08,-1.60
2014,02,04,01,09,-1.60
2014,02,04,01,10,-1.60
2014,02,04,01,11,-1.50
2014,02,04,01,12,-1.40
2014,02,04,01,13,-1.40
2014,02,04,01,14,-1.40
2014,02,04,01,15,-1.40
2014,02,04,01,16,-1.40
2014,02,04,01,17,-1.40
2014,02,04,01,18,-1.40
2014,02,04,01,19,-1.40
2014,02,04,01,20,-1.40
2014,02,04,01,21,-1.30
2014,02,04,01,22,-1.30
2014,02,04,01,23,-1.30
2014,02,04,01,24,-1.30
2014,02,04,01,25,-1.30
2014,02,04,01,26,-1.30
2014,02,04,01,27,-1.30
2014,02,04,01,28,-1.20
2014,02,04,01,29,-1.20
2014,02,04,01,30,-1.20
2014,02,04,01,31,-1.20
2014,02,04,01,32,-1.20
2014,02,04,01,33,-1.10
2014,02,04,01,34,-1.10
2014,02,04,01,35,-1.10
2014,02,04,01,36,-1.10
2014,02,04,01,37,-1.10
2014,02,04,01,38,-1.10
2014,02,04,01,39,-1.00
2014,02,04,01,40,-1.00
2014,02,04,01,41,-1.00
2014,02,04,01,42,-1.00
2014,02,04,01,43,-1.00
2014,02,04,01,44,-1.00
2014,02,04,01,45,-1.10
2014,02,04,01,46,-1.10
2014,02,04,01,47,-1.10
2014,02,04,01,48,-1.10
2014,02,04,01,49,-1.10
2014,02,04,01,50,-1.10
2014,02,04,01,51,-1.20
2014,02,04,01,52,-1.20
2014,02,04,01,53,-1.20
2014,02,04,01,54,-1.20
2014,02,04,01,55,-1.20
2014,02,04,01,56,-1.20
2014,02,04,01,57,-1.20
2014,02,04,01,58,-1.20
2014,02,04,01,59,-1.20
2014,02,04,02,00,-1.30
2014,02,04,02,01,-1.30
2014,02,04,02,02,-1.30
2014,02,04,02,03,-1.30
2014,02,04,02,04,-1.20
2014,02,04,02,05,-1.30
2014,02,04,02,06,-1.20
2014,02,04,02,07,-1.30
2014,02,04,02,08,-1.30
2014,02,04,02,09,-1.30
2014,02,04,02,10,-1.30
2014,02,04,02,11,-1.30
2014,02,04,02,12,-1.30
2014,02,04,02,13,-1.30
2014,02,04,02,14,-1.30
2014,02,04,02,15,-1.30
2014,02,04,02,16,-1.30
2014,02,04,02,17,-1.30
2014,02,04,02,18,-1.30
2014,02,04,02,19,-1.40
2014,02,04,02,20,-1.40
2014,02,04,02,21,-1.40
2014,02,04,02,22,-1.50
2014,02,04,02,23,-1.50
2014,02,04,02,24,-1.50
2014,02,04,02,25,-1.40
2014,02,04,02,26,-1.40
2014,02,04,02,27,-1.40
2014,02,04,02,28,-1.40
2014,02,04,02,29,-1.40
2014,02,04,02,30,-1.40
2014,02,04,02,31,-1.40
2014,02,04,02,32,-1.40
2014,02,04,02,33,-1.40
2014,02,04,02,34,-1.40
2014,02,04,02,35,-1.50
2014,02,04,02,36,-1.50
2014,02,04,02,37,-1.50
2014,02,04,02,38,-1.50
2014,02,04,02,39,-1.50
2014,02,04,02,40,-1.50
2014,02,04,02,41,-1.50
2014,02,04,02,42,-1.60
2014,02,04,02,43,-1.60
2014,02,04,02,44,-1.60
2014,02,04,02,45,-1.50
2014,02,04,02,46,-1.50
2014,02,04,02,47,-1.60
2014,02,04,02,48,-1.60
2014,02,04,02,49,-1.60
2014,02,04,02,50,-1.60
2014,02,04,02,51,-1.60
2014,02,04,02,52,-1.60
2014,02,04,02,53,-1.60
2014,02,04,02,54,-1.60
2014,02,04,02,55,-1.60
2014,02,04,02,56,-1.60
2014,02,04,02,57,-1.60
2014,02,04,02,58,-1.60
2014,02,04,02,59,-1.60
2014,02,04,03,00,-1.60
2014,02,04,03,01,-1.60
2014,02,04,03,02,-1.60
2014,02,04,03,06,-1.60
2014,02,04,03,07,-1.60
2014,02,04,03,08,-1.60
2014,02,04,03,09,-1.60
2014,02,04,03,10,-1.60
2014,02,04,03,11,-1.60
2014,02,04,03,12,-1.50
2014,02,04,03,13,-1.50
2014,02,04,03,14,-1.50
2014,02,04,03,15,-1.40
2014,02,04,03,16,-1.40
2014,02,04,03,17,-1.40
2014,02,04,03,18,-1.40
2014,02,04,03,19,-1.40
2014,02,04,03,20,-1.40
2014,02,04,03,21,-1.40
2014,02,04,03,22,-1.40
2014,02,04,03,23,-1.40
2014,02,04,03,24,-1.40
2014,02,04,03,25,-1.40
2014,02,04,03,26,-1.50
2014,02,04,03,27,-1.50
2014,02,04,03,28,-1.50
2014,02,04,03,29,-1.50
2014,02,04,03,30,-1.50
2014,02,04,03,31,-1.50
2014,02,04,03,32,-1.60
2014,02,04,03,33,-1.60
2014,02,04,03,34,-1.60
2014,02,04,03,35,-1.60
2014,02,04,03,36,-1.60
2014,02,04,03,37,-1.60
2014,02,04,03,38,-1.60
2014,02,04,03,39,-1.60
2014,02,04,03,40,-1.60
2014,02,04,03,41,-1.60
2014,02,04,03,42,-1.60
2014,02,04,03,43,-1.60
2014,02,04,03,44,-1.60
2014,02,04,03,45,-1.60
2014,02,04,03,46,-1.70
2014,02,04,03,47,-1.70
2014,02,04,03,48,-1.70
2014,02,04,03,49,-1.70
2014,02,04,03,50,-1.70
2014,02,04,03,51,-1.70
2014,02,04,03,52,-1.70
2014,02,04,03,53,-1.70
2014,02,04,03,54,-1.70
2014,02,04,03,55,-1.70
2014,02,04,03,56,-1.70
2014,02,04,03,57,-1.70
2014,02,04,03,58,-1.70
2014,02,04,03,59,-1.70
2014,02,04,04,00,-1.70
2014,02,04,04,01,-1.70
2014,02,04,04,02,-1.70
2014,02,04,04,03,-1.70
2014,02,04,04,04,-1.70
2014,02,04,04,05,-1.70
2014,02,04,04,06,-1.70
2014,02,04,04,07,-1.70
2014,02,04,04,08,-1.80
2014,02,04,04,09,-1.80
2014,02,04,04,10,-1.80
2014,02,04,04,11,-1.80
2014,02,04,04,12,-1.80
2014,02,04,04,13,-1.80
2014,02,04,04,14,-1.80
2014,02,04,04,15,-1.80
2014,02,04,04,16,-1.80
2014,02,04,04,17,-1.80
2014,02,04,04,18,-1.80
2014,02,04,04,19,-1.80
2014,02,04,04,20,-1.80
2014,02,04,04,21,-1.80
2014,02,04,04,22,-1.80
2014,02,04,04,23,-1.80
2014,02,04,04,24,-1.80
2014,02,04,04,25,-1.80
2014,02,04,04,26,-1.80
2014,02,04,04,27,-1.80
2014,02,04,04,28,-1.80
2014,02,04,04,29,-1.80
2014,02,04,04,30,-1.80
2014,02,04,04,31,-1.80
2014,02,04,04,32,-1.80
2014,02,04,04,33,-1.80
2014,02,04,04,34,-1.80
2014,02,04,04,35,-1.80
2014,02,04,04,36,-1.80
2014,02,04,04,37,-1.80
2014,02,04,04,38,-1.80
2014,02,04,04,39,-1.80
2014,02,04,04,40,-1.80
2014,02,04,04,41,-1.80
2014,02,04,04,42,-1.80
2014,02,04,04,43,-1.80
2014,02,04,04,44,-1.80
2014,02,04,04,45,-1.80
2014,02,04,04,46,-1.80
2014,02,04,04,47,-1.80
2014,02,04,04,48,-1.80
2014,02,04,04,49,-1.80
2014,02,04,04,50,-1.80
2014,02,04,04,51,-1.80
2014,02,04,04,52,-1.80
2014,02,04,04,53,-1.80
2014,02,04,04,54,-1.80
2014,02,04,04,55,-1.80
2014,02,04,04,56,-1.80
2014,02,04,04,57,-1.80
2014,02,04,04,58,-1.80
2014,02,04,04,59,-1.80
2014,02,04,05,00,-1.80
2014,02,04,05,01,-1.90
2014,02,04,05,02,-1.90
2014,02,04,05,03,-1.90
2014,02,04,05,04,-1.90
2014,02,04,05,05,-2.00
2014,02,04,05,06,-2.00
2014,02,04,05,07,-2.00
2014,02,04,05,08,-2.10
2014,02,04,05,09,-2.10
2014,02,04,05,10,-2.10
2014,02,04,05,11,-2.10
2014,02,04,05,12,-2.10
2014,02,04,05,13,-2.10
2014,02,04,05,14,-2.10
2014,02,04,05,15,-2.10
2014,02,04,05,16,-2.10
2014,02,04,05,17,-2.10
2014,02,04,05,18,-2.10
2014,02,04,05,19,-2.10
2014,02,04,05,20,-2.10
2014,02,04,05,21,-2.10
2014,02,04,05,22,-2.10
2014,02,04,05,23,-2.10
2014,02,04,05,24,-2.10
2014,02,04,05,25,-2.10
2014,02,04,05,26,-2.10
2014,02,04,05,27,-2.10
2014,02,04,05,28,-2.10
2014,02,04,05,29,-2.10
2014,02,04,05,30,-2.10
2014,02,04,05,31,-2.10
2014,02,04,05,32,-2.10
2014,02,04,05,33,-2.10
2014,02,04,05,34,-2.10
2014,02,04,05,35,-2.10
2014,02,04,05,36,-2.10
2014,02,04,05,37,-2.10
2014,02,04,05,38,-2.10
2014,02,04,05,39,-2.10
2014,02,04,05,40,-2.10
2014,02,04,05,41,-2.10
2014,02,04,05,42,-2.10
2014,02,04,05,43,-2.10
2014,02,04,05,44,-2.10
2014,02,04,05,45,-2.10
2014,02,04,05,46,-2.20
2014,02,04,05,47,-2.20
2014,02,04,05,48,-2.20
2014,02,04,05,49,-2.20
2014,02,04,05,50,-2.20
2014,02,04,05,51,-2.20
2014,02,04,05,52,-2.20
2014,02,04,05,53,-2.20
2014,02,04,05,54,-2.30
2014,02,04,05,55,-2.30
2014,02,04,05,56,-2.30
2014,02,04,05,57,-2.30
2014,02,04,05,58,-2.30
2014,02,04,05,59,-2.30
2014,02,04,06,00,-2.30
2014,02,04,06,01,-2.30
2014,02,04,06,02,-2.30
2014,02,04,06,03,-2.30
2014,02,04,06,04,-2.30
2014,02,04,06,05,-2.30
2014,02,04,06,06,-2.30
2014,02,04,06,07,-2.30
2014,02,04,06,08,-2.30
2014,02,04,06,09,-2.30
2014,02,04,06,10,-2.30
2014,02,04,06,11,-2.30
2014,02,04,06,12,-2.30
2014,02,04,06,13,-2.30
2014,02,04,06,14,-2.30
2014,02,04,06,15,-2.30
2014,02,04,06,16,-2.40
2014,02,04,06,17,-2.40
2014,02,04,06,18,-2.40
2014,02,04,06,19,-2.40
2014,02,04,06,20,-2.40
2014,02,04,06,21,-2.40
2014,02,04,06,22,-2.40
2014,02,04,06,23,-2.40
2014,02,04,06,24,-2.40
2014,02,04,06,25,-2.40
2014,02,04,06,26,-2.40
2014,02,04,06,27,-2.40
2014,02,04,06,28,-2.50
2014,02,04,06,29,-2.50
2014,02,04,06,30,-2.50
2014,02,04,06,31,-2.50
2014,02,04,06,32,-2.50
2014,02,04,06,33,-2.50
2014,02,04,06,34,-2.50
2014,02,04,06,35,-2.50
2014,02,04,06,36,-2.50
2014,02,04,06,37,-2.50
2014,02,04,06,38,-2.50
2014,02,04,06,39,-2.50
2014,02,04,06,40,-2.50
2014,02,04,06,41,-2.50
2014,02,04,06,42,-2.50
2014,02,04,06,43,-2.50
2014,02,04,06,44,-2.50
2014,02,04,06,45,-2.60
2014,02,04,06,46,-2.60
2014,02,04,06,47,-2.60
2014,02,04,06,48,-2.60
2014,02,04,06,49,-2.60
2014,02,04,06,50,-2.60
2014,02,04,06,51,-2.60
2014,02,04,06,52,-2.60
2014,02,04,06,53,-2.60
2014,02,04,06,54,-2.60
2014,02,04,06,55,-2.60
2014,02,04,06,56,-2.60
2014,02,04,06,57,-2.60
2014,02,04,06,58,-2.60
2014,02,04,06,59,-2.60
2014,02,04,07,00,-2.60
2014,02,04,07,01,-2.60
2014,02,04,07,02,-2.60
2014,02,04,07,03,-2.60
2014,02,04,07,04,-2.60
2014,02,04,07,05,-2.60
2014,02,04,07,06,-2.60
2014,02,04,07,07,-2.60
2014,02,04,07,08,-2.60
2014,02,04,07,09,-2.60
2014,02,04,07,10,-2.70
2014,02,04,07,11,-2.70
2014,02,04,07,12,-2.70
2014,02,04,07,13,-2.60
2014,02,04,07,14,-2.60
2014,02,04,07,15,-2.60
2014,02,04,07,16,-2.60
2014,02,04,07,17,-2.60
2014,02,04,07,18,-2.70
2014,02,04,07,19,-2.70
2014,02,04,07,20,-2.70
2014,02,04,07,21,-2.70
2014,02,04,07,22,-2.70
2014,02,04,07,23,-2.70
2014,02,04,07,24,-2.80
2014,02,04,07,25,-2.80
2014,02,04,07,26,-2.70
2014,02,04,07,27,-2.70
2014,02,04,07,28,-2.70
2014,02,04,07,29,-2.70
2014,02,04,07,30,-2.70
2014,02,04,07,31,-2.70
2014,02,04,07,32,-2.70
2014,02,04,07,33,-2.70
2014,02,04,07,34,-2.70
2014,02,04,07,35,-2.70
2014,02,04,07,36,-2.70
2014,02,04,07,37,-2.70
2014,02,04,07,38,-2.70
2014,02,04,07,39,-2.70
2014,02,04,07,40,-2.70
2014,02,04,07,41,-2.70
2014,02,04,07,42,-2.70
2014,02,04,07,43,-2.60
2014,02,04,07,44,-2.60
2014,02,04,07,45,-2.60
2014,02,04,07,46,-2.70
2014,02,04,07,47,-2.70
2014,02,04,07,48,-2.70
2014,02,04,07,49,-2.70
2014,02,04,07,50,-2.70
2014,02,04,07,51,-2.70
2014,02,04,07,52,-2.70
2014,02,04,07,53,-2.70
2014,02,04,07,54,-2.70
2014,02,04,07,55,-2.70
2014,02,04,07,56,-2.70
2014,02,04,07,57,-2.70
2014,02,04,07,58,-2.70
2014,02,04,07,59,-2.70
2014,02,04,08,00,-2.70
2014,02,04,08,01,-2.70
2014,02,04,08,02,-2.70
2014,02,04,08,03,-2.70
2014,02,04,08,04,-2.70
2014,02,04,08,05,-2.70
2014,02,04,08,06,-2.70
2014,02,04,08,07,-2.70
2014,02,04,08,08,-2.70
2014,02,04,08,09,-2.70
2014,02,04,08,10,-2.70
2014,02,04,08,11,-2.60
2014,02,04,08,12,-2.60
2014,02,04,08,13,-2.60
2014,02,04,08,14,-2.60
2014,02,04,08,15,-2.60
2014,02,04,08,16,-2.50
2014,02,04,08,17,-2.50
2014,02,04,08,18,-2.50
2014,02,04,08,19,-2.50
2014,02,04,08,20,-2.40
2014,02,04,08,21,-2.40
2014,02,04,08,22,-2.50
2014,02,04,08,23,-2.50
2014,02,04,08,24,-2.50
2014,02,04,08,25,-2.50
2014,02,04,08,26,-2.50
2014,02,04,08,27,-2.50
2014,02,04,08,28,-2.50
2014,02,04,08,29,-2.50
2014,02,04,08,30,-2.60
2014,02,04,08,31,-2.60
2014,02,04,08,32,-2.60
2014,02,04,08,33,-2.60
2014,02,04,08,34,-2.60
2014,02,04,08,35,-2.60
2014,02,04,08,36,-2.60
2014,02,04,08,37,-2.70
2014,02,04,08,38,-2.70
2014,02,04,08,39,-2.70
2014,02,04,08,40,-2.70
2014,02,04,08,41,-2.70
2014,02,04,08,42,-2.70
2014,02,04,08,43,-2.70
2014,02,04,08,44,-2.70
2014,02,04,08,45,-2.70
2014,02,04,08,46,-2.70
2014,02,04,08,47,-2.70
2014,02,04,08,48,-2.60
2014,02,04,08,49,-2.60
2014,02,04,08,50,-2.50
2014,02,04,08,51,-2.50
2014,02,04,08,52,-2.50
2014,02,04,08,53,-2.40
2014,02,04,08,54,-2.40
2014,02,04,08,55,-2.40
2014,02,04,08,56,-2.40
2014,02,04,08,57,-2.40
2014,02,04,08,58,-2.40
2014,02,04,08,59,-2.40
2014,02,04,09,00,-2.40
2014,02,04,09,01,-2.40
2014,02,04,09,02,-2.40
2014,02,04,09,03,-2.40
2014,02,04,09,04,-2.40
2014,02,04,09,05,-2.40
2014,02,04,09,06,-2.40
2014,02,04,09,07,-2.40
2014,02,04,09,08,-2.40
2014,02,04,09,09,-2.40
2014,02,04,09,10,-2.40
2014,02,04,09,11,-2.40
2014,02,04,09,12,-2.30
2014,02,04,09,13,-2.30
2014,02,04,09,14,-2.30
2014,02,04,09,15,-2.30
2014,02,04,09,16,-2.20
2014,02,04,09,17,-2.20
2014,02,04,09,18,-2.20
2014,02,04,09,19,-2.20
2014,02,04,09,20,-2.20
2014,02,04,09,21,-2.20
2014,02,04,09,22,-2.10
2014,02,04,09,23,-2.10
2014,02,04,09,24,-2.10
2014,02,04,09,25,-2.10
2014,02,04,09,26,-2.00
2014,02,04,09,27,-1.90
2014,02,04,09,28,-1.90
2014,02,04,09,29,-1.80
2014,02,04,09,30,-1.80
2014,02,04,09,31,-1.70
2014,02,04,09,32,-1.70
2014,02,04,09,33,-1.60
2014,02,04,09,34,-1.60
2014,02,04,09,35,-1.60
2014,02,04,09,36,-1.60
2014,02,04,09,37,-1.50
2014,02,04,09,38,-1.50
2014,02,04,09,39,-1.40
2014,02,04,09,40,-1.40
2014,02,04,09,41,-1.40
2014,02,04,09,42,-1.50
2014,02,04,09,43,-1.60
2014,02,04,09,44,-1.70
2014,02,04,09,45,-1.70
2014,02,04,09,46,-1.80
2014,02,04,09,47,-1.80
2014,02,04,09,48,-1.80
2014,02,04,09,49,-1.80
2014,02,04,09,50,-1.80
2014,02,04,09,51,-1.80
2014,02,04,09,52,-1.80
2014,02,04,09,53,-1.90
2014,02,04,09,54,-1.90
2014,02,04,09,55,-1.90
2014,02,04,09,56,-1.90
2014,02,04,09,57,-1.90
2014,02,04,09,58,-2.00
2014,02,04,09,59,-2.00
2014,02,04,10,00,-2.00
2014,02,04,10,01,-2.10
2014,02,04,10,02,-2.10
2014,02,04,10,03,-2.10
2014,02,04,10,04,-2.10
2014,02,04,10,05,-2.10
2014,02,04,10,06,-2.10
2014,02,04,10,07,-2.10
2014,02,04,10,08,-2.10
2014,02,04,10,09,-2.00
2014,02,04,10,10,-2.00
2014,02,04,10,11,-1.90
2014,02,04,10,12,-1.80
2014,02,04,10,13,-1.70
2014,02,04,10,14,-1.60
2014,02,04,10,15,-1.40
2014,02,04,10,16,-1.40
2014,02,04,10,17,-1.30
2014,02,04,10,18,-1.20
2014,02,04,10,19,-1.20
2014,02,04,10,20,-1.20
2014,02,04,10,21,-1.10
2014,02,04,10,22,-1.10
2014,02,04,10,23,-1.10
2014,02,04,10,24,-1.20
2014,02,04,10,25,-1.10
2014,02,04,10,26,-1.20
2014,02,04,10,27,-1.20
2014,02,04,10,28,-1.20
2014,02,04,10,29,-1.20
2014,02,04,10,30,-1.30
2014,02,04,10,31,-1.30
2014,02,04,10,32,-1.30
2014,02,04,10,33,-1.30
2014,02,04,10,34,-1.30
2014,02,04,10,35,-1.30
2014,02,04,10,36,-1.30
2014,02,04,10,37,-1.30
2014,02,04,10,38,-1.20
2014,02,04,10,39,-1.20
2014,02,04,10,40,-1.10
2014,02,04,10,41,-1.10
2014,02,04,10,42,-1.10
2014,02,04,10,43,-1.10
2014,02,04,10,44,-1.10
2014,02,04,10,45,-1.00
2014,02,04,10,46,-1.00
2014,02,04,10,47,-1.00
2014,02,04,10,48,-1.00
2014,02,04,10,49,-1.00
2014,02,04,10,50,-0.90
2014,02,04,10,51,-0.90
2014,02,04,10,52,-0.90
2014,02,04,10,53,-1.00
2014,02,04,10,54,-1.10
2014,02,04,10,55,-1.10
2014,02,04,10,56,-1.20
2014,02,04,10,57,-1.30
2014,02,04,10,58,-1.40
2014,02,04,10,59,-1.40
2014,02,04,11,00,-1.30
2014,02,04,11,01,-1.30
2014,02,04,11,02,-1.30
2014,02,04,11,03,-1.30
2014,02,04,11,04,-1.30
2014,02,04,11,05,-1.30
2014,02,04,11,06,-1.30
2014,02,04,11,07,-1.30
2014,02,04,11,08,-1.30
2014,02,04,11,09,-1.30
2014,02,04,11,10,-1.30
2014,02,04,11,11,-1.30
2014,02,04,11,12,-1.30
2014,02,04,11,13,-1.30
2014,02,04,11,14,-1.30
2014,02,04,11,15,-1.30
2014,02,04,11,16,-1.40
2014,02,04,11,17,-1.40
2014,02,04,11,18,-1.40
2014,02,04,11,19,-1.40
2014,02,04,11,20,-1.40
2014,02,04,11,21,-1.40
2014,02,04,11,22,-1.40
2014,02,04,11,23,-1.40
2014,02,04,11,24,-1.40
2014,02,04,11,25,-1.30
2014,02,04,11,26,-1.30
2014,02,04,11,27,-1.30
2014,02,04,11,28,-1.20
2014,02,04,11,29,-1.20
2014,02,04,11,30,-1.20
2014,02,04,11,31,-1.20
2014,02,04,11,32,-1.10
2014,02,04,11,33,-1.10
2014,02,04,11,34,-1.10
2014,02,04,11,35,-1.00
2014,02,04,11,36,-1.00
2014,02,04,11,37,-0.90
2014,02,04,11,38,-0.80
2014,02,04,11,39,-0.80
2014,02,04,11,40,-0.70
2014,02,04,11,41,-0.70
2014,02,04,11,42,-0.70
2014,02,04,11,43,-0.70
2014,02,04,11,44,-0.70
2014,02,04,11,45,-0.80
2014,02,04,11,46,-0.80
2014,02,04,11,47,-0.80
2014,02,04,11,48,-0.70
2014,02,04,11,49,-0.70
2014,02,04,11,50,-0.70
2014,02,04,11,51,-0.70
2014,02,04,11,52,-0.70
2014,02,04,11,53,-0.80
2014,02,04,11,54,-0.80
2014,02,04,11,55,-0.80
2014,02,04,11,56,-0.80
2014,02,04,11,57,-0.80
2014,02,04,11,58,-0.80
2014,02,04,11,59,-0.80
2014,02,04,12,00,-0.80
2014,02,04,12,01,-0.90
2014,02,04,12,02,-0.90
2014,02,04,12,03,-0.90
2014,02,04,12,04,-0.90
2014,02,04,12,05,-0.90
2014,02,04,12,06,-0.90
2014,02,04,12,07,-0.80
2014,02,04,12,08,-0.80
2014,02,04,12,09,-0.80
2014,02,04,12,10,-0.80
2014,02,04,12,11,-0.90
2014,02,04,12,12,-0.90
2014,02,04,12,13,-0.90
2014,02,04,12,14,-0.90
2014,02,04,12,15,-0.90
2014,02,04,12,16,-0.90
2014,02,04,12,17,-0.90
2014,02,04,12,18,-0.90
2014,02,04,12,19,-0.90
2014,02,04,12,20,-0.90
2014,02,04,12,21,-0.90
2014,02,04,12,22,-0.90
2014,02,04,12,23,-1.00
2014,02,04,12,24,-1.00
2014,02,04,12,25,-1.00
2014,02,04,12,26,-0.90
2014,02,04,12,27,-1.00
2014,02,04,12,28,-1.00
2014,02,04,12,29,-1.00
2014,02,04,12,30,-0.90
2014,02,04,12,31,-0.90
2014,02,04,12,32,-0.80
2014,02,04,12,33,-0.70
2014,02,04,12,34,-0.70
2014,02,04,12,35,-0.70
2014,02,04,12,36,-0.70
2014,02,04,12,37,-0.70
2014,02,04,12,38,-0.70
2014,02,04,12,39,-0.80
2014,02,04,12,40,-0.80
2014,02,04,12,41,-0.90
2014,02,04,12,42,-0.80
2014,02,04,12,43,-0.80
2014,02,04,12,44,-0.90
2014,02,04,12,45,-0.90
2014,02,04,12,46,-0.90
2014,02,04,12,47,-0.80
2014,02,04,12,48,-0.80
2014,02,04,12,49,-0.70
2014,02,04,12,50,-0.60
2014,02,04,12,51,-0.60
2014,02,04,12,52,-0.50
2014,02,04,12,53,-0.40
2014,02,04,12,54,-0.40
2014,02,04,12,55,-0.30
2014,02,04,12,56,-0.20
2014,02,04,12,57,-0.20
2014,02,04,12,58,-0.10
2014,02,04,12,59,-0.20
2014,02,04,13,00,-0.20
2014,02,04,13,01,-0.20
2014,02,04,13,02,-0.20
2014,02,04,13,03,-0.10
2014,02,04,13,04,-0.10
2014,02,04,13,05,0.00
2014,02,04,13,06,0.10
2014,02,04,13,07,0.00
2014,02,04,13,08,-0.10
2014,02,04,13,09,-0.20
2014,02,04,13,10,-0.20
2014,02,04,13,11,-0.30
2014,02,04,13,12,-0.30
2014,02,04,13,13,-0.30
2014,02,04,13,14,-0.20
2014,02,04,13,15,-0.20
2014,02,04,13,16,-0.20
2014,02,04,13,17,-0.20
2014,02,04,13,18,-0.20
2014,02,04,13,19,-0.20
2014,02,04,13,20,-0.20
2014,02,04,13,21,-0.30
2014,02,04,13,22,-0.30
2014,02,04,13,23,-0.30
2014,02,04,13,24,-0.30
2014,02,04,13,25,-0.40
2014,02,04,13,26,-0.40
2014,02,04,13,27,-0.50
2014,02,04,13,28,-0.60
2014,02,04,13,29,-0.60
2014,02,04,13,30,-0.60
2014,02,04,13,31,-0.60
2014,02,04,13,32,-0.60
2014,02,04,13,33,-0.60
2014,02,04,13,34,-0.50
2014,02,04,13,35,-0.40
2014,02,04,13,36,-0.30
2014,02,04,13,37,-0.20
2014,02,04,13,38,-0.20
2014,02,04,13,39,-0.10
2014,02,04,13,40,-0.10
2014,02,04,13,41,-0.10
2014,02,04,13,42,-0.10
2014,02,04,13,43,-0.10
2014,02,04,13,44,-0.10
2014,02,04,13,45,-0.20
2014,02,04,13,46,-0.30
2014,02,04,13,47,-0.30
2014,02,04,13,48,-0.40
2014,02,04,13,49,-0.40
2014,02,04,13,50,-0.50
2014,02,04,13,51,-0.50
2014,02,04,13,52,-0.40
2014,02,04,13,53,-0.40
2014,02,04,13,54,-0.40
2014,02,04,13,55,-0.30
2014,02,04,13,56,-0.20
2014,02,04,13,57,-0.10
2014,02,04,13,58,-0.10
2014,02,04,13,59,-0.10
2014,02,04,14,00,-0.10
2014,02,04,14,01,-0.20
2014,02,04,14,02,-0.20
2014,02,04,14,03,-0.20
2014,02,04,14,04,-0.10
2014,02,04,14,05,-0.10
2014,02,04,14,06,-0.10
2014,02,04,14,07,-0.10
2014,02,04,14,08,-0.10
2014,02,04,14,09,-0.10
2014,02,04,14,10,0.00
2014,02,04,14,11,0.00
2014,02,04,14,12,0.00
2014,02,04,14,13,0.00
2014,02,04,14,14,0.10
2014,02,04,14,15,0.10
2014,02,04,14,16,0.20
2014,02,04,14,17,0.20
2014,02,04,14,18,0.30
2014,02,04,14,19,0.40
2014,02,04,14,20,0.40
2014,02,04,14,21,0.40
2014,02,04,14,22,0.30
2014,02,04,14,23,0.20
2014,02,04,14,24,0.10
2014,02,04,14,25,0.10
2014,02,04,14,26,0.00
2014,02,04,14,27,0.00
2014,02,04,14,28,-0.10
2014,02,04,14,29,-0.10
2014,02,04,14,30,-0.10
2014,02,04,14,31,-0.10
2014,02,04,14,32,0.00
2014,02,04,14,33,0.00
2014,02,04,14,34,0.00
2014,02,04,14,35,0.10
2014,02,04,14,36,0.10
2014,02,04,14,37,0.20
2014,02,04,14,38,0.20
2014,02,04,14,39,0.20
2014,02,04,14,40,0.20
2014,02,04,14,41,0.10
2014,02,04,14,42,0.10
2014,02,04,14,43,0.10
2014,02,04,14,44,0.10
2014,02,04,14,45,0.10
2014,02,04,14,46,0.10
2014,02,04,14,47,0.10
2014,02,04,14,48,0.20
2014,02,04,14,49,0.20
2014,02,04,14,50,0.30
2014,02,04,14,51,0.40
2014,02,04,14,52,0.40
2014,02,04,14,53,0.40
2014,02,04,14,54,0.40
2014,02,04,14,55,0.30
2014,02,04,14,56,0.30
2014,02,04,14,57,0.20
2014,02,04,14,58,0.10
2014,02,04,14,59,0.10
2014,02,04,15,00,0.10
2014,02,04,15,01,0.10
2014,02,04,15,02,0.20
2014,02,04,15,03,0.20
2014,02,04,15,04,0.20
2014,02,04,15,05,0.20
2014,02,04,15,06,0.20
2014,02,04,15,07,0.20
2014,02,04,15,08,0.10
2014,02,04,15,09,0.00
2014,02,04,15,10,0.00
2014,02,04,15,11,-0.10
2014,02,04,15,12,-0.10
2014,02,04,15,13,-0.10
2014,02,04,15,14,0.00
2014,02,04,15,15,0.00
2014,02,04,15,16,0.00
2014,02,04,15,17,0.00
2014,02,04,15,18,0.00
2014,02,04,15,19,-0.10
2014,02,04,15,20,-0.10
2014,02,04,15,21,-0.20
2014,02,04,15,22,-0.20
2014,02,04,15,23,-0.10
2014,02,04,15,24,-0.10
2014,02,04,15,25,-0.10
2014,02,04,15,26,-0.10
2014,02,04,15,27,-0.10
2014,02,04,15,28,-0.10
2014,02,04,15,29,-0.10
2014,02,04,15,30,-0.10
2014,02,04,15,31,-0.20
2014,02,04,15,32,-0.20
2014,02,04,15,33,-0.30
2014,02,04,15,34,-0.30
2014,02,04,15,35,-0.30
2014,02,04,15,36,-0.30
2014,02,04,15,37,-0.30
2014,02,04,15,38,-0.30
2014,02,04,15,39,-0.40
2014,02,04,15,40,-0.40
2014,02,04,15,41,-0.40
2014,02,04,15,42,-0.40
2014,02,04,15,43,-0.50
2014,02,04,15,44,-0.50
2014,02,04,15,45,-0.50
2014,02,04,15,46,-0.50
2014,02,04,15,47,-0.50
2014,02,04,15,48,-0.50
2014,02,04,15,49,-0.50
2014,02,04,15,50,-0.50
2014,02,04,15,51,-0.50
2014,02,04,15,52,-0.60
2014,02,04,15,53,-0.60
2014,02,04,15,54,-0.60
2014,02,04,15,55,-0.70
2014,02,04,15,56,-0.70
2014,02,04,15,57,-0.70
2014,02,04,15,58,-0.80
2014,02,04,15,59,-0.80
2014,02,04,16,00,-0.80
2014,02,04,16,01,-0.80
2014,02,04,16,02,-0.80
2014,02,04,16,03,-0.80
2014,02,04,16,04,-0.80
2014,02,04,16,05,-0.80
2014,02,04,16,06,-0.80
2014,02,04,16,07,-0.80
2014,02,04,16,08,-0.90
2014,02,04,16,09,-0.90
2014,02,04,16,10,-0.90
2014,02,04,16,11,-0.90
2014,02,04,16,12,-0.90
2014,02,04,16,13,-0.90
2014,02,04,16,14,-1.00
2014,02,04,16,15,-1.00
2014,02,04,16,16,-1.00
2014,02,04,16,17,-1.10
2014,02,04,16,18,-1.10
2014,02,04,16,19,-1.10
2014,02,04,16,20,-1.10
2014,02,04,16,21,-1.20
2014,02,04,16,22,-1.20
2014,02,04,16,23,-1.20
2014,02,04,16,24,-1.20
2014,02,04,16,25,-1.20
2014,02,04,16,26,-1.30
2014,02,04,16,27,-1.30
2014,02,04,16,28,-1.30
2014,02,04,16,29,-1.30
2014,02,04,16,30,-1.30
2014,02,04,16,31,-1.30
2014,02,04,16,32,-1.40
2014,02,04,16,33,-1.40
2014,02,04,16,34,-1.40
2014,02,04,16,35,-1.40
2014,02,04,16,36,-1.40
2014,02,04,16,37,-1.50
2014,02,04,16,38,-1.50
2014,02,04,16,39,-1.50
2014,02,04,16,40,-1.50
2014,02,04,16,41,-1.60
2014,02,04,16,42,-1.60
2014,02,04,16,43,-1.60
2014,02,04,16,44,-1.60
2014,02,04,16,45,-1.70
2014,02,04,16,46,-1.70
2014,02,04,16,47,-1.70
2014,02,04,16,48,-1.70
2014,02,04,16,49,-1.70
2014,02,04,16,50,-1.70
2014,02,04,16,51,-1.80
2014,02,04,16,52,-1.80
2014,02,04,16,53,-1.80
2014,02,04,16,54,-1.80
2014,02,04,16,55,-1.80
2014,02,04,16,56,-1.80
2014,02,04,16,57,-1.80
2014,02,04,16,58,-1.80
2014,02,04,16,59,-1.80
2014,02,04,17,00,-1.80
2014,02,04,17,01,-1.90
2014,02,04,17,02,-1.90
2014,02,04,17,03,-1.90
2014,02,04,17,04,-1.90
2014,02,04,17,05,-2.00
2014,02,04,17,06,-2.00
2014,02,04,17,07,-2.00
2014,02,04,17,08,-2.00
2014,02,04,17,09,-2.10
2014,02,04,17,10,-2.10
2014,02,04,17,11,-2.10
2014,02,04,17,12,-2.10
2014,02,04,17,13,-2.10
2014,02,04,17,14,-2.10
2014,02,04,17,15,-2.10
2014,02,04,17,16,-2.10
2014,02,04,17,17,-2.20
2014,02,04,17,18,-2.20
2014,02,04,17,19,-2.20
2014,02,04,17,20,-2.30
2014,02,04,17,21,-2.30
2014,02,04,17,22,-2.30
2014,02,04,17,23,-2.40
2014,02,04,17,24,-2.40
2014,02,04,17,25,-2.50